Location: Newark
(43.6583°N, 1.6617°E)
Time: 06:49:01
(UTC+00:00)

Transit 4A - Pass Details

Date: 27 August 2019
Orbit: 865 x 980 km, 66.8° (Epoch: 16 September)

Event Time Altitude Azimuth Distance (km) Brightness Sun altitude
Rises 23:56:21 0° 333° (NNW) 3,650 11.8 -36.1°
Reaches altitude 10° 23:59:43 10° 350° (N) 2,682 11.0 -36.1°
Maximum altitude 00:04:11 20° 36° (NE) 2,022 10.1 -36.1°
Enters shadow 00:08:04 12° 79° (E) 2,501 10.3 -36.0°
